CFE7032 EGHH-EGLC

Flight info

Callsign CFE7032
Flight time 0h 26m
Altitude 7000
Route SAM
Aircraft E190/M-SDE3GILORVW/S

Departure

Time 2026-04-30 11:10
Airport Bournemouth Airport (EGHH)

Arrival

Time 2026-04-30 11:36
Airport London City Airport (EGLC)
Time Latitude Longitude Altitude Speed Heading
2026-04-30 11:04 50.77850 -1.83475 45 ft 0 kts 176°
2026-04-30 11:06 50.77846 -1.83474 45 ft 2 kts 176°
2026-04-30 11:06 50.77807 -1.83470 45 ft 9 kts 176°
2026-04-30 11:06 50.77740 -1.83466 45 ft 11 kts 184°
2026-04-30 11:06 50.77661 -1.83477 45 ft 12 kts 183°
2026-04-30 11:07 50.77585 -1.83540 45 ft 14 kts 241°
2026-04-30 11:07 50.77577 -1.83699 44 ft 16 kts 273°
2026-04-30 11:07 50.77588 -1.83885 44 ft 18 kts 277°
2026-04-30 11:07 50.77619 -1.84087 43 ft 20 kts 285°
2026-04-30 11:08 50.77663 -1.84311 42 ft 23 kts 289°
2026-04-30 11:08 50.77706 -1.84560 42 ft 24 kts 281°
2026-04-30 11:08 50.77737 -1.84783 42 ft 21 kts 290°
2026-04-30 11:08 50.77806 -1.84990 42 ft 21 kts 299°
2026-04-30 11:09 50.77851 -1.85110 43 ft 8 kts 309°
2026-04-30 11:09 50.77870 -1.85088 43 ft 6 kts 72°
2026-04-30 11:09 50.77908 -1.84860 44 ft 53 kts 75°
2026-04-30 11:09 50.78060 -1.83933 44 ft 121 kts 76°
2026-04-30 11:10 50.78336 -1.82414 384 ft 159 kts 75°
2026-04-30 11:10 50.78693 -1.80626 1144 ft 180 kts 77°
2026-04-30 11:10 50.79113 -1.78564 1918 ft 213 kts 74°
2026-04-30 11:10 50.79644 -1.76201 2708 ft 244 kts 75°
2026-04-30 11:11 50.80216 -1.73609 3452 ft 236 kts 75°
2026-04-30 11:11 50.80751 -1.71324 4193 ft 219 kts 75°
2026-04-30 11:11 50.81432 -1.69137 4929 ft 231 kts 56°
2026-04-30 11:11 50.82550 -1.67247 5538 ft 236 kts 59°
2026-04-30 11:12 50.83411 -1.65085 6027 ft 235 kts 66°
2026-04-30 11:12 50.84229 -1.62808 6493 ft 241 kts 65°
2026-04-30 11:12 50.85136 -1.60443 6997 ft 260 kts 63°
2026-04-30 11:12 50.86124 -1.57986 7178 ft 274 kts 62°
2026-04-30 11:13 50.87140 -1.55529 7874 ft 267 kts 62°
2026-04-30 11:13 50.88176 -1.53024 8654 ft 269 kts 62°
2026-04-30 11:13 50.89205 -1.50534 9487 ft 271 kts 62°
2026-04-30 11:13 50.90234 -1.48036 10327 ft 271 kts 62°
2026-04-30 11:14 50.91265 -1.45535 11107 ft 270 kts 62°
2026-04-30 11:14 50.92276 -1.43092 11906 ft 269 kts 62°
2026-04-30 11:14 50.93297 -1.40622 12627 ft 272 kts 62°
2026-04-30 11:14 50.94325 -1.38090 12797 ft 267 kts 65°
2026-04-30 11:15 50.94790 -1.35426 13011 ft 242 kts 97°
2026-04-30 11:15 50.94280 -1.32975 13240 ft 236 kts 124°
2026-04-30 11:15 50.93208 -1.31004 13238 ft 236 kts 133°
2026-04-30 11:15 50.92079 -1.29116 13249 ft 235 kts 133°
2026-04-30 11:16 50.90891 -1.27148 13301 ft 265 kts 134°
2026-04-30 11:16 50.89528 -1.24907 13419 ft 299 kts 134°
2026-04-30 11:16 50.88030 -1.22459 13511 ft 317 kts 134°
2026-04-30 11:16 50.86470 -1.19918 13464 ft 324 kts 134°
2026-04-30 11:17 50.84893 -1.17351 13357 ft 327 kts 134°
2026-04-30 11:17 50.83306 -1.14773 13257 ft 327 kts 134°
2026-04-30 11:17 50.81710 -1.12179 13208 ft 325 kts 134°
2026-04-30 11:17 50.80140 -1.09632 13218 ft 327 kts 134°
2026-04-30 11:18 50.78552 -1.07057 13234 ft 327 kts 134°
2026-04-30 11:18 50.75376 -1.01917 13209 ft 327 kts 134°
2026-04-30 11:18 50.73780 -0.99347 13188 ft 327 kts 134°
2026-04-30 11:19 50.72458 -0.96447 13207 ft 328 kts 114°
2026-04-30 11:19 50.71967 -0.92921 13197 ft 333 kts 97°
2026-04-30 11:19 50.71770 -0.89284 13204 ft 333 kts 98°
2026-04-30 11:19 50.71500 -0.85664 13192 ft 332 kts 99°
2026-04-30 11:20 50.71186 -0.82053 13194 ft 332 kts 100°
2026-04-30 11:20 50.70925 -0.78435 13201 ft 333 kts 92°
2026-04-30 11:20 50.71397 -0.74839 13207 ft 341 kts 69°
2026-04-30 11:20 50.72797 -0.71776 13203 ft 351 kts 46°
2026-04-30 11:21 50.74721 -0.69383 13223 ft 354 kts 40°
2026-04-30 11:21 50.76713 -0.67086 13199 ft 354 kts 40°
2026-04-30 11:21 50.78695 -0.64783 13208 ft 354 kts 40°
2026-04-30 11:21 50.80683 -0.62465 13017 ft 357 kts 40°
2026-04-30 11:22 50.82671 -0.60147 12649 ft 354 kts 40°
2026-04-30 11:22 50.84642 -0.57850 12327 ft 350 kts 40°
2026-04-30 11:22 50.86596 -0.55578 12086 ft 347 kts 40°
2026-04-30 11:22 50.88538 -0.53312 11834 ft 346 kts 40°
2026-04-30 11:23 50.90471 -0.51048 11573 ft 346 kts 40°
2026-04-30 11:23 50.92399 -0.48780 11333 ft 345 kts 40°
2026-04-30 11:23 50.96239 -0.44272 10738 ft 343 kts 40°
2026-04-30 11:24 50.98124 -0.42072 10366 ft 332 kts 40°
2026-04-30 11:24 50.99973 -0.39924 9834 ft 326 kts 40°
2026-04-30 11:24 51.01784 -0.37822 9342 ft 319 kts 40°
2026-04-30 11:25 51.05326 -0.33727 8314 ft 311 kts 40°
2026-04-30 11:25 51.07045 -0.31744 7856 ft 299 kts 40°
2026-04-30 11:25 51.10659 -0.29007 7384 ft 292 kts 11°
2026-04-30 11:26 51.14663 -0.28246 7248 ft 290 kts 11°
2026-04-30 11:26 51.15339 -0.28114 7263 ft 291 kts 11°
2026-04-30 11:26 51.17341 -0.27727 7280 ft 294 kts 11°
2026-04-30 11:27 51.19383 -0.27329 7200 ft 296 kts 11°
2026-04-30 11:27 51.21438 -0.26865 6912 ft 298 kts 14°
2026-04-30 11:27 51.23453 -0.26212 6600 ft 294 kts 15°
2026-04-30 11:27 51.25451 -0.25545 6303 ft 291 kts 15°
2026-04-30 11:28 51.29409 -0.24275 5526 ft 287 kts 16°
2026-04-30 11:28 51.31357 -0.23690 5130 ft 285 kts 15°
2026-04-30 11:28 51.32431 -0.23370 5002 ft 280 kts 16°
2026-04-30 11:29 51.33050 -0.23185 4941 ft 278 kts 16°
2026-04-30 11:29 51.33112 -0.23166 4933 ft 277 kts 16°
2026-04-30 11:29 51.33963 -0.22914 4821 ft 278 kts 16°
2026-04-30 11:30 51.34977 -0.22620 4662 ft 278 kts 16°
2026-04-30 11:30 51.35025 -0.22607 4654 ft 278 kts 16°
2026-04-30 11:30 51.35309 -0.22526 4627 ft 278 kts 15°
2026-04-30 11:31 51.36846 -0.22107 4312 ft 278 kts 15°
2026-04-30 11:31 51.37309 -0.21981 4204 ft 279 kts 15°
2026-04-30 11:31 51.39225 -0.21460 3764 ft 280 kts 15°
2026-04-30 11:32 51.41144 -0.20936 3303 ft 280 kts 15°
2026-04-30 11:32 51.43056 -0.20388 2887 ft 278 kts 15°
2026-04-30 11:32 51.44952 -0.19828 2429 ft 275 kts 15°
2026-04-30 11:33 51.48195 -0.18013 2148 ft 216 kts 49°
2026-04-30 11:33 51.49104 -0.16224 2123 ft 194 kts 58°
2026-04-30 11:33 51.49774 -0.14487 2004 ft 177 kts 66°
2026-04-30 11:33 51.50255 -0.12750 1751 ft 168 kts 76°
2026-04-30 11:34 51.50533 -0.10933 1463 ft 166 kts 83°
2026-04-30 11:34 51.50699 -0.09129 1344 ft 163 kts 87°
2026-04-30 11:34 51.50791 -0.07328 1238 ft 158 kts 89°
2026-04-30 11:34 51.50856 -0.05589 1142 ft 155 kts 92°
2026-04-30 11:35 51.50822 -0.03917 1135 ft 144 kts 95°
2026-04-30 11:35 51.50763 -0.02334 980 ft 141 kts 94°
2026-04-30 11:35 51.50722 -0.00761 802 ft 142 kts 95°
2026-04-30 11:35 51.50663 0.00857 429 ft 150 kts 94°
2026-04-30 11:36 51.50619 0.02518 324 ft 150 kts 91°
2026-04-30 11:36 51.50569 0.04205 68 ft 151 kts 94°
2026-04-30 11:36 51.50513 0.05768 24 ft 120 kts 93°
2026-04-30 11:36 51.50503 0.06629 21 ft 36 kts 81°
2026-04-30 11:37 51.50499 0.06661 24 ft 0 kts 144°